Flag for Sweden Weather past 2 weeks in Malmö, Sweden

Now
36 °F

Passing clouds.


Feels Like: 26 °F
Forecast: 37 / 47 °F
Wind: 15 mph from West

Location: Malmo / Sturup

Current Time: Apr 2, 2015 at 9:22:08 AM

Latest Report: Apr 2, 2015 at 8:50 AM


Visibility: N/A

Pressure: 29.50 "Hg

Humidity: 81%

Dew point: 30 °F

Location of MalmöLocation

Historic Weather in Malmö — Graph

°F

Malmö temperature yesterday

Maximum temperature yesterday: 43 °F (at 11:20 AM)
Minimum temperature yesterday: 36 °F (at 12:20 AM)
Average temperature yesterday: 39 °F

Past Weeks' High & Low Weather Summary

 TemperatureHumidityPressure
High52 °F (Mar 19, 12:50 PM)100% (Mar 20, 6:20 PM)30.51 "Hg (Mar 20, 6:20 PM)
Low19 °F (Mar 22, 6:20 AM)28% (Mar 19, 3:50 PM)28.82 "Hg (Mar 30, 3:20 AM)
Average39 °F80%29.80 "Hg
* Reported Mar 18 7:20 AM — Apr 2 8:20 AM, Malmö, Weather by CustomWeather, © 2015

Note: Actual official high and low records may vary slightly from our data, if they occured in-between our weather recording intervals... More about our weather records

Advertising

Malmö weather history for previous 24 hours

 ConditionsComfort  
Time TempWeatherWind HumidityBarometerVisibility
8:20 AM
Thu, Apr 2
36 °FScattered clouds.13 mph81%29.50 "HgN/A
7:50 AM34 °FScattered clouds.10 mph87%29.50 "HgN/A
7:20 AM34 °FPassing clouds.9 mph87%29.50 "HgN/A
6:50 AM32 °FPassing clouds.8 mph93%29.50 "HgN/A
6:20 AM32 °FPassing clouds.9 mph93%29.50 "HgN/A
5:50 AM34 °FPassing clouds.10 mph87%29.50 "HgN/A
5:20 AM34 °FPassing clouds.10 mph87%29.50 "HgN/A
4:50 AM34 °FClear.10 mph87%29.50 "Hg10 mi
4:20 AM34 °FPassing clouds.10 mph87%29.53 "HgN/A
3:50 AM36 °FPassing clouds.12 mph87%29.53 "HgN/A
3:20 AM36 °FPassing clouds.10 mph87%29.53 "HgN/A
2:50 AM36 °FPassing clouds.14 mph81%29.53 "HgN/A
2:20 AM36 °FPassing clouds.10 mph81%29.53 "HgN/A
1:50 AM36 °FPassing clouds.12 mph81%29.56 "HgN/A
12:50 AM36 °FPassing clouds.13 mph81%29.56 "HgN/A
12:20 AM36 °FPassing clouds.14 mph75%29.56 "HgN/A
11:50 PM
Wed, Apr 1
37 °FPassing clouds.14 mph70%29.56 "HgN/A
11:20 PM37 °FPassing clouds.15 mph65%29.56 "HgN/A
10:50 PM37 °FClear.20 mph65%29.56 "Hg10 mi
10:20 PM37 °FClear.22 mph65%29.56 "Hg10 mi
9:50 PM37 °FClear.22 mph65%29.56 "Hg10 mi
9:20 PM37 °FClear.20 mph65%29.53 "Hg10 mi
8:50 PM39 °FPassing clouds.22 mph65%29.53 "HgN/A
8:20 PM39 °FPassing clouds.21 mph65%29.53 "HgN/A
7:50 PM39 °FPartly sunny.20 mph65%29.53 "HgN/A
7:20 PM41 °FPartly sunny.22 mph61%29.53 "HgN/A
6:50 PM41 °FBroken clouds.20 mph66%29.50 "HgN/A
6:20 PM41 °FPartly sunny.24 mph70%29.50 "HgN/A
5:50 PM41 °FSprinkles. Broken clouds.22 mph70%29.50 "HgN/A
5:20 PM41 °FPartly sunny.23 mph70%29.47 "HgN/A
4:50 PM41 °FBroken clouds.21 mph76%29.47 "HgN/A
4:20 PM37 °FRain showers. Broken clouds.26 mph87%29.47 "HgN/A
3:50 PM39 °FBroken clouds.21 mph87%29.45 "HgN/A
3:20 PM39 °FDrizzle. Broken clouds.18 mph87%29.45 "HgN/A
2:50 PM43 °FBroken clouds.21 mph76%29.45 "HgN/A
2:20 PM43 °FScattered clouds.14 mph81%29.45 "HgN/A
1:50 PM41 °FBroken clouds.20 mph87%29.45 "HgN/A
1:20 PM43 °FScattered clouds.16 mph71%29.42 "HgN/A
12:50 PM41 °FPartly sunny.16 mph76%29.42 "HgN/A
12:20 PM41 °FSprinkles. Broken clouds.22 mph70%29.42 "Hg4 mi
11:50 AM43 °FBroken clouds.20 mph66%29.42 "HgN/A
11:20 AM43 °FPartly sunny.18 mph71%29.42 "HgN/A
10:50 AM41 °FPartly sunny.20 mph76%29.42 "HgN/A
10:20 AM41 °FBroken clouds.17 mph81%29.39 "HgN/A
9:50 AM39 °FMostly cloudy.18 mph81%29.39 "HgN/A
9:20 AM39 °FMostly cloudy.17 mph81%29.39 "HgN/A
Weather by CustomWeather, © 2015

See weather overviewHow to use our weather pages